This is the latest recevied weather packets stored in our database for station/object KG5APU. If no packets are shown the sender has not sent any weather packets the latest 1 day(s).
| Time | Temp. | Humidity | Pressure | Rain* | Wind** | Luminosity | Snow |
|---|---|---|---|---|---|---|---|
| 1777989603 | 22.78° C | 84% | 1006.1 hPa | 0 mm | 3.58 m/s, 209° | 163 W/m² | - |
| 1777989002 | 22.78° C | 85% | 1005.8 hPa | 0 mm | 2.24 m/s, 205° | 125 W/m² | - |
| 1777988401 | 22.78° C | 85% | 1005.9 hPa | 0 mm | 3.13 m/s, 212° | 125 W/m² | - |
| 1777987799 | 22.78° C | 85% | 1006 hPa | 0 mm | 4.02 m/s, 224° | 122 W/m² | - |
| 1777987194 | 22.22° C | 86% | 1006.2 hPa | 0 mm | 3.13 m/s, 184° | 79 W/m² | - |
| 1777986595 | 22.22° C | 86% | 1005.7 hPa | 0 mm | 2.24 m/s, 171° | 63 W/m² | - |
| 1777985990 | 22.22° C | 86% | 1005.9 hPa | 0 mm | 2.68 m/s, 178° | 51 W/m² | - |
| 1777985389 | 21.67° C | 86% | 1005.8 hPa | 0 mm | 1.79 m/s, 196° | 33 W/m² | - |
| 1777984787 | 21.67° C | 86% | 1005.6 hPa | 0 mm | 2.24 m/s, 165° | 28 W/m² | - |
| 1777984186 | 21.67° C | 86% | 1005.3 hPa | 0 mm | 1.79 m/s, 190° | 27 W/m² | - |
| 1777983586 | 21.67° C | 86% | 1005.5 hPa | 0 mm | 2.68 m/s, 174° | 14 W/m² | - |
| 1777982984 | 21.67° C | 86% | 1004.9 hPa | 0 mm | 2.24 m/s, 202° | 12 W/m² | - |
| 1777982380 | 21.67° C | 86% | 1005 hPa | 0 mm | 3.13 m/s, 196° | 11 W/m² | - |
| 1777981775 | 21.67° C | 86% | 1005 hPa | 0 mm | 0.89 m/s, 232° | 5 W/m² | - |
| 1777981174 | 21.67° C | 86% | 1005 hPa | 0 mm | 2.24 m/s, 188° | 1 W/m² | - |
| 1777980571 | 21.67° C | 86% | 1004.9 hPa | 0 mm | 3.58 m/s, 159° | 1 W/m² | - |
| 1777979971 | 21.67° C | 86% | 1005.1 hPa | 0 mm | 1.34 m/s, 193° | 0 W/m² | - |
| 1777979368 | 21.67° C | 86% | 1004.8 hPa | 0 mm | 3.13 m/s, 157° | 0 W/m² | - |
| 1777978768 | 21.67° C | 86% | 1004.6 hPa | 0 mm | 2.24 m/s, 178° | 0 W/m² | - |
| 1777978166 | 21.67° C | 86% | 1004.7 hPa | 0 mm | 1.79 m/s, 169° | 0 W/m² | - |
| 1777977566 | 21.67° C | 86% | 1004.7 hPa | 0 mm | 2.68 m/s, 255° | 0 W/m² | - |
| 1777976967 | 21.67° C | 86% | 1004.9 hPa | 0 mm | 3.13 m/s, 197° | 0 W/m² | - |
| 1777976366 | 21.67° C | 86% | 1004.9 hPa | 0 mm | 1.79 m/s, 166° | 0 W/m² | - |
| 1777975762 | 21.67° C | 86% | 1004.8 hPa | 0 mm | 2.24 m/s, 229° | 0 W/m² | - |
| 1777975161 | 21.67° C | 85% | 1005 hPa | 0 mm | 2.24 m/s, 179° | 0 W/m² | - |
* Rain latest hour (hover to see other rain measurements)
** Current wind speed in m/s (hover to see current wind gust speed)